Погода в Ломоватке

Россия / Вологодская область     61°07′43″N   45°31′29″E
темп.,
°C
ветер,
м/с
пор.,
м/с
влажн.,
%
обл.,
%
осадки,
мм/ч
давл.,
гПа
погр.,
м
9 марта, вт
вт900:00−21с3898100 0.1 1010261
03:00−25с3899100 0.1 1012218
06:00−27ссв2799100 0.0 1014214
09:00−26ссв3696100 0.1 1016283
12:00−22с359187 0.0 1017415
15:00−21с369093 0.0 1019514
18:00−24с2698100 0.0 1020134
21:00−26с249992 0.0 102282
10 марта, ср
ср1000:00−27с22990 0.0 102325
03:00−28сз22970 0.0 102319
06:00−27зсз229759 0.0 102346
09:00−23зсз259677 0.0 1023254
12:00−19сз2491100 0.1 1023459
15:00−16сз3590100 0.1 1023462
18:00−18зсз389798 0.0 1022234
21:00−17зсз4139398 0.0 1021412
11 марта, чт
чт1100:00−13сз5139396 0.0 1021474
03:00−13сз4129498 0.0 1021431
06:00−15сз4119396 0.0 1022346
09:00−14сз488970 0.0 1022331
12:00−10зсз498018 0.0 1023565
15:00−8зсз59739 0.0 1022899
18:00−12з311880 0.0 1022357
21:00−14з4129026 0.0 1022393
12 марта, пт
пт1200:00−14з41291100 0.0 1021385
03:00−14зюз41392100 0.0 1020452
06:00−15зюз4129298 0.0 1020418
09:00−14зюз5108996 0.0 1019388
12:00−9зюз498972 0.0 1020419
15:00−7юз5108868 0.0 1019571
18:00−9юз4119283 0.0 1019426
21:00−12юз4129263 0.0 1020375
13 марта, сб
сб1300:00−15ююз411920 0.0 1020329
03:00−16ююз411945 0.0 1019337
06:00−16ююз5129341 0.0 1019329
09:00−13ююз5128721 0.0 1018410
12:00−9ююз612820 0.0 1017629
15:00−6ююз6138420 0.0 1016815
18:00−7ююз51389100 0.1 1015884
21:00−9ююз51291100 0.2 1015781